Overview Statistics Trail Chart Weather Telemetry Raw packets
 

This is the latest recevied weather packets stored in our database for station/object DL6DJ-15. If no packets are shown the sender has not sent any weather packets the latest 10 day(s).

<< 111 112 113 114 >>
Time Temp. Humidity Pressure Rain* Wind** Luminosity Snow
1787762806 25.56° C 49% 1018.2 hPa - - - -
1787762506 25.56° C 49% 1018.2 hPa - - - -
1787762205 25.56° C 49% 1018.2 hPa - - - -
1787761905 25.56° C 49% 1018 hPa - - - -
1787761605 25.56° C 49% 1018.1 hPa - - - -
1787761304 25.56° C 49% 1018.2 hPa - - - -
1787761004 26.11° C 47% 1018.1 hPa - - - -
1787760703 26.11° C 48% 1018.2 hPa - - - -
1787760404 26.11° C 47% 1018.2 hPa - - - -
1787760102 26.11° C 47% 1018.2 hPa - - - -
1787759802 26.11° C 48% 1018.3 hPa - - - -
1787759503 26.11° C 47% 1018.4 hPa - - - -
1787759202 26.11° C 47% 1018.4 hPa - - - -
1787758901 26.11° C 49% 1018.5 hPa - - - -
1787758601 26.11° C 47% 1018.4 hPa - - - -
1787758301 26.11° C 48% 1018.4 hPa - - - -
1787758001 26.11° C 45% 1018.5 hPa - - - -
1787757700 26.11° C 46% 1018.5 hPa - - - -
1787757399 26.11° C 46% 1018.5 hPa - - - -
1787757099 26.11° C 48% 1018.5 hPa - - - -
1787756799 26.11° C 50% 1018.7 hPa - - - -
1787756498 26.11° C 49% 1018.7 hPa - - - -

* Rain since midnight (hover to see other rain measurements)
** Current wind speed in m/s (hover to see current wind gust speed)